TimeCST,TemperatureF,Dew PointF,Humidity,Sea Level PressureIn,VisibilityMPH,Wind Direction,Wind SpeedMPH,Gust SpeedMPH,PrecipitationIn,Events,Conditions,WindDirDegrees,DateUTC
12:53 AM,43.0,36.0,76,29.80,10.0,NNE,8.1,-,0.00,,Overcast,20,2013-02-13 06:53:00
1:53 AM,43.0,36.0,76,29.78,10.0,NE,6.9,-,0.00,Rain,Light Rain,50,2013-02-13 07:53:00
2:30 AM,42.8,35.6,76,29.76,6.0,ENE,5.8,-,0.02,Rain,Rain,60,2013-02-13 08:30:00
2:53 AM,42.1,37.0,82,29.75,5.0,East,4.6,-,0.04,Rain,Light Rain,80,2013-02-13 08:53:00
3:53 AM,41.0,39.0,93,29.74,5.0,NNE,3.5,-,0.10,Rain,Light Rain,20,2013-02-13 09:53:00
4:03 AM,41.0,37.4,87,29.73,4.0,NNE,6.9,-,0.00,Rain,Light Rain,20,2013-02-13 10:03:00
4:22 AM,41.0,39.2,93,29.73,3.0,North,5.8,-,0.01,,Overcast,10,2013-02-13 10:22:00
4:41 AM,41.0,39.2,93,29.73,2.5,NNE,5.8,-,0.01,Rain,Light Rain,20,2013-02-13 10:41:00
4:53 AM,41.0,39.0,93,29.73,3.0,North,6.9,-,0.02,Rain,Light Rain,360,2013-02-13 10:53:00
5:13 AM,41.0,39.2,93,29.73,2.5,North,6.9,-,0.00,Rain,Light Rain,350,2013-02-13 11:13:00
5:44 AM,41.0,39.2,93,29.73,3.0,North,6.9,-,0.02,Rain,Light Rain,360,2013-02-13 11:44:00
5:53 AM,41.0,39.0,93,29.75,2.5,North,6.9,-,0.03,Rain,Light Rain,350,2013-02-13 11:53:00
6:01 AM,41.0,39.2,93,29.75,3.0,NNW,8.1,-,0.00,Rain,Light Rain,330,2013-02-13 12:01:00
6:15 AM,39.2,37.4,93,29.76,2.0,NNW,8.1,-,0.01,Rain,Rain,340,2013-02-13 12:15:00
6:53 AM,39.0,37.0,93,29.76,2.0,North,11.5,18.4,0.04,Rain,Light Rain,350,2013-02-13 12:53:00
7:15 AM,39.2,37.4,93,29.76,2.5,North,11.5,-,0.01,Rain,Light Rain,360,2013-02-13 13:15:00
7:53 AM,39.0,36.0,89,29.78,3.0,North,8.1,19.6,0.02,Rain,Light Rain,360,2013-02-13 13:53:00
8:37 AM,37.4,35.6,93,29.80,2.0,NNW,9.2,-,0.00,Rain,Light Rain,330,2013-02-13 14:37:00
8:53 AM,37.9,36.0,93,29.81,1.5,NNW,9.2,-,0.00,Rain,Light Rain,330,2013-02-13 14:53:00
9:53 AM,37.0,34.0,89,29.87,2.0,NW,6.9,-,0.04,Rain,Light Rain,320,2013-02-13 15:53:00
10:30 AM,39.2,35.6,87,29.85,3.0,NNW,6.9,-,0.01,,Overcast,340,2013-02-13 16:30:00
10:53 AM,39.0,35.1,86,29.86,9.0,North,12.7,20.7,0.01,,Overcast,350,2013-02-13 16:53:00
11:09 AM,39.2,35.6,87,29.87,10.0,NNW,10.4,19.6,N/A,,Overcast,340,2013-02-13 17:09:00
11:28 AM,39.2,33.8,81,29.89,10.0,NNW,15.0,20.7,N/A,,Overcast,340,2013-02-13 17:28:00
11:53 AM,39.9,34.0,79,29.89,10.0,NNW,9.2,-,N/A,,Overcast,340,2013-02-13 17:53:00
12:13 PM,41.0,33.8,76,29.90,10.0,North,9.2,-,N/A,,Overcast,350,2013-02-13 18:13:00
12:53 PM,39.0,34.0,82,29.90,10.0,NW,10.4,-,N/A,,Overcast,310,2013-02-13 18:53:00
1:42 PM,39.2,33.8,81,29.90,10.0,NNW,10.4,-,N/A,,Overcast,330,2013-02-13 19:42:00
1:53 PM,39.9,34.0,79,29.91,10.0,NW,9.2,-,N/A,,Overcast,320,2013-02-13 19:53:00
2:53 PM,39.9,34.0,79,29.92,10.0,WNW,8.1,-,N/A,,Overcast,300,2013-02-13 20:53:00
3:53 PM,41.0,34.0,76,29.94,10.0,NW,6.9,-,N/A,,Overcast,320,2013-02-13 21:53:00
4:53 PM,39.9,33.1,77,29.95,10.0,West,5.8,-,N/A,,Mostly Cloudy,280,2013-02-13 22:53:00
5:53 PM,39.9,33.1,77,29.96,10.0,West,4.6,-,N/A,,Mostly Cloudy,260,2013-02-13 23:53:00
6:53 PM,37.9,32.0,79,29.98,10.0,Calm,Calm,-,N/A,,Scattered Clouds,0,2013-02-14 00:53:00
7:53 PM,37.9,33.1,83,29.99,10.0,Calm,Calm,-,N/A,,Mostly Cloudy,0,2013-02-14 01:53:00
8:53 PM,36.0,34.0,93,30.01,10.0,Calm,Calm,-,N/A,,Overcast,0,2013-02-14 02:53:00
9:53 PM,37.0,34.0,89,30.02,10.0,SSW,4.6,-,N/A,,Overcast,200,2013-02-14 03:53:00
10:00 PM,37.4,33.8,87,30.01,10.0,SSW,4.6,-,N/A,,Overcast,200,2013-02-14 04:00:00
10:53 PM,36.0,33.1,89,30.02,10.0,SSW,3.5,-,N/A,,Scattered Clouds,200,2013-02-14 04:53:00
11:53 PM,33.1,30.9,92,30.03,8.0,South,5.8,-,N/A,,Clear,180,2013-02-14 05:53:00